Location: Waco, TX
(31.5480°N, 97.1670°W)
Time: 22:40:19
(UTC-06:00)

ISS - Pass Details

Date: 19 February 2019
Orbit: 403 x 411 km, 51.6° (Epoch: 22 February)

Event Time Altitude Azimuth Distance (km) Brightness Sun altitude
Rises 13:58:08 0° 335° (NNW) 2,323 -0.3 43.6°
Reaches altitude 10° 14:01:34 10° 13° (NNE) 1,463 -1.3 43.3°
Maximum altitude 14:02:34 11° 31° (NNE) 1,400 -1.4 43.2°
Drops below altitude 10° 14:03:34 10° 49° (NE) 1,462 -1.3 43.1°
Sets 14:06:59 0° 87° (E) 2,322 -0.2 42.7°
